Location: Deer Lodge Site
(39.6809°N, 119.9392°W)
Time: 14:06:29
(UTC-08:00)

Amateur Radio Satellites - All Passes

Search period start: 18 January 2017 13:36
Search period end: 19 January 2017 13:36
Location: Deer Lodge Site, 39.6809°N, 119.9392°W

Satellite Date Start Highest point End Downlink Frequencies (MHz)
Time Altitude Azimuth
Cosmos 2491 18 Jan 13:39:29 13:48:18 85° 263° (W) 13:57:06 435.465 / 435.565
DANDE 18 Jan 13:39:32 13:44:49 20° 66° (ENE) 13:50:25 436.750
YUBILEINY 18 Jan 13:45:16 13:53:35 49° 89° (E) 14:01:56 435.215
DX 1 18 Jan 13:46:10 13:49:23 21° 294° (WNW) 13:52:35 434.975-435.025
UKube-1 18 Jan 13:49:28 13:52:59 25° 292° (WNW) 13:56:29 .
TISAT 1 18 Jan 13:51:22 13:55:32 73° 286° (WNW) 13:59:41 437.305
SPROUT 18 Jan 13:53:50 13:55:01 11° 297° (WNW) 13:56:12 437.525
AO-85 18 Jan 13:55:09 13:59:48 53° 118° (ESE) 14:04:08 145.980
AO-7 18 Jan 13:59:32 14:07:33 53° 65° (ENE) 14:15:36 29.400- 29.500
Gurwin Techsat 1B 18 Jan 14:00:44 14:05:23 31° 264° (W) 14:10:05 435.225
Oscar 19 18 Jan 14:06:27 14:09:15 15° 269° (W) 14:12:03 437.125/150
AIST 1 18 Jan 14:18:19 14:22:40 66° 279° (W) 14:27:01
Cosmos 2504 18 Jan 14:26:45 14:35:02 49° 90° (E) 14:42:54 435.465 / 435.565
ITUPSAT 1 18 Jan 14:28:38 14:33:18 48° 100° (E) 14:37:56 437.325
ITAMSAT 1 18 Jan 14:41:40 14:46:46 60° 259° (WSW) 14:51:54 435.822/435.867
BRITE-PL 18 Jan 14:49:07 14:52:31 17° 62° (ENE) 14:55:55 437.365/2234.400
CUSAT 1 18 Jan 14:53:09 15:00:57 59° 267° (W) 15:08:15 437.405
BEESAT 18 Jan 15:04:42 15:09:29 70° 286° (WNW) 15:14:14 436.000
SWISSCUBE 18 Jan 15:06:09 15:10:53 61° 287° (WNW) 15:15:37 437.505
MOZHAYETS 4 18 Jan 15:19:17 15:23:49 51° 99° (E) 15:28:20
DANDE 18 Jan 15:20:32 15:28:17 89° 84° (E) 15:36:41 436.750
AO-85 18 Jan 15:37:07 15:40:27 19° 313° (NW) 15:43:38 145.980
Cosmos 2491 18 Jan 15:39:07 15:43:43 16° 284° (WNW) 15:48:20 435.465 / 435.565
STARS 18 Jan 15:40:25 15:41:06 10° 90° (E) 15:41:47 437.465
YUBILEINY 18 Jan 15:42:38 15:50:32 36° 288° (WNW) 15:58:33 435.215
AO-7 18 Jan 15:53:09 16:00:31 34° 263° (W) 16:07:58 29.400- 29.500
O/OREOS (USA 219) 18 Jan 15:59:55 16:04:08 38° 63° (ENE) 16:08:21 437.305
CUBESAT XI-V 18 Jan 16:00:01 16:03:33 21° 93° (E) 16:07:02 437.345
ITUPSAT 1 18 Jan 16:07:29 16:10:45 18° 296° (WNW) 16:14:00 437.325
KKS-1 18 Jan 16:14:27 16:18:50 61° 101° (E) 16:23:12 437.445
M-CUBED/EXP-1 PRIME 18 Jan 16:14:55 16:18:18 76° 107° (ESE) 16:21:33 437.505
Cubesat XI-IV 18 Jan 16:20:34 16:24:21 20° 63° (ENE) 16:28:09 437.490
Cosmos 2504 18 Jan 16:20:45 16:28:33 36° 287° (WNW) 16:36:00 435.465 / 435.565
HORYU 2 18 Jan 16:21:29 16:25:44 50° 73° (ENE) 16:30:00 437.375
BRITE-PL 18 Jan 16:24:39 16:30:18 75° 258° (WSW) 16:36:00 437.365/2234.400
BEESAT 3 18 Jan 16:26:30 16:30:18 57° 118° (ESE) 16:34:10 437.485
NOAA 15 18 Jan 16:36:10 16:40:41 30° 67° (ENE) 16:45:14 137.62
LilacSat-2 18 Jan 16:38:02 16:40:57 22° 69° (ENE) 16:43:54 437.200
GOMX 1 18 Jan 16:39:41 16:45:05 68° 75° (ENE) 16:50:18 467.674
JUGNU 18 Jan 16:42:36 16:43:09 10° 182° (S) 16:43:42 437.505
SO-50 18 Jan 16:44:10 16:48:32 47° 54° (NE) 16:52:50 436.795
AUBIESAT-1 18 Jan 16:53:35 16:56:45 38° 292° (WNW) 16:59:50 437.475
MOZHAYETS 4 18 Jan 16:57:41 17:00:33 16° 295° (WNW) 17:03:23
DANDE 18 Jan 17:05:08 17:10:13 19° 276° (W) 17:15:33 436.750
BEESAT 2 18 Jan 17:06:37 17:10:30 68° 119° (ESE) 17:14:28 435.950
STARS 18 Jan 17:13:31 17:17:51 65° 286° (WNW) 17:22:10 437.465
CUTE-I 18 Jan 17:16:11 17:21:26 65° 73° (ENE) 17:26:42 437.470
DOVE 4 18 Jan 17:29:37 17:34:43 85° 78° (ENE) 17:39:34 437.250
CUBESAT XI-V 18 Jan 17:36:41 17:41:01 38° 289° (WNW) 17:45:19 437.345
CINEMA 3 18 Jan 17:37:38 17:41:05 22° 69° (ENE) 17:44:26 145.822/145.860
O/OREOS (USA 219) 18 Jan 17:40:05 17:43:13 19° 259° (W) 17:46:22 437.305
HO-68 18 Jan 17:42:19 17:48:25 31° 62° (ENE) 17:54:33 435.675
NOAA 18 18 Jan 17:46:20 17:51:48 70° 73° (ENE) 17:57:17 137.9125
KKS-1 18 Jan 17:52:54 17:54:52 13° 297° (WNW) 17:56:49 437.445
CUTE 1.7 + AOD 2 18 Jan 17:56:14 17:59:14 19° 67° (ENE) 18:02:16 437.475
Cubesat XI-IV 18 Jan 17:58:51 18:04:01 52° 260° (W) 18:09:12 437.490
HORYU 2 18 Jan 18:00:16 18:02:33 14° 268° (W) 18:04:51 437.375
BEESAT 3 18 Jan 18:06:02 18:08:16 15° 316° (NW) 18:10:30 437.485
LilacSat-2 18 Jan 18:12:06 18:15:08 23° 265° (W) 18:18:12 437.200
NOAA 15 18 Jan 18:15:36 18:20:20 34° 263° (W) 18:25:08 137.62
GOMX 1 18 Jan 18:20:29 18:23:30 15° 269° (W) 18:26:28 467.674
CANX-2 18 Jan 18:23:49 18:27:50 44° 73° (ENE) 18:31:55 2200.000
SO-50 18 Jan 18:25:38 18:28:36 18° 250° (WSW) 18:31:33 436.795
STRAND 1 18 Jan 18:33:20 18:37:29 24° 95° (E) 18:41:38 437.568
GONETS M04 18 Jan 18:34:32 18:40:50 23° 80° (E) 18:47:08
SEEDS 18 Jan 18:39:15 18:43:08 37° 72° (ENE) 18:47:04 437.485
CUBEBUG 2 18 Jan 18:45:35 18:49:05 27° 70° (ENE) 18:52:35 437.445
Cosmos 2499 18 Jan 18:46:27 18:53:50 34° 87° (E) 19:00:47 435.465 / 435.565
BEESAT 2 18 Jan 18:46:46 18:48:44 13° 317° (NW) 18:50:44 435.950
AIST 2 18 Jan 18:48:23 18:50:48 15° 109° (ESE) 18:53:15 435.215
COMPASS 1 18 Jan 18:48:41 18:52:23 31° 71° (ENE) 18:56:07 437.405
CUTE-I 18 Jan 18:59:01 19:01:55 15° 269° (W) 19:04:49 437.470
AAUSAT CUBESAT 2 18 Jan 19:01:57 19:05:42 33° 71° (ENE) 19:09:29 437.432
CINEMA 3 18 Jan 19:14:04 19:18:03 31° 263° (W) 19:21:56 145.822/145.860
UWE-3 18 Jan 19:17:45 19:21:36 38° 72° (ENE) 19:25:26 435.000/436.395/437.385
FUNcube-1 18 Jan 19:19:43 19:22:53 22° 68° (ENE) 19:26:04 145.935
HO-68 18 Jan 19:28:51 19:35:48 51° 260° (W) 19:42:48 435.675
NOAA 18 18 Jan 19:30:01 19:32:56 14° 269° (W) 19:35:53 137.9125
CUTE 1.7 + AOD 2 18 Jan 19:30:55 19:34:49 35° 263° (W) 19:38:44 437.475
ZACube-1 18 Jan 19:40:51 19:44:43 41° 73° (ENE) 19:48:37 437.345
CANX-2 18 Jan 20:01:33 20:03:55 15° 269° (W) 20:06:18 2200.000
HUMSAT D 18 Jan 20:10:42 20:12:46 14° 65° (ENE) 20:14:51 437.325/437.525
STRAND 1 18 Jan 20:12:01 20:16:44 38° 291° (WNW) 20:21:27 437.568
SEEDS 18 Jan 20:16:12 20:18:58 17° 268° (W) 20:21:45 437.485
Oscar 11 18 Jan 20:20:19 20:24:37 80° 259° (W) 20:28:58 145.826/435.025
CUBEBUG 2 18 Jan 20:22:21 20:25:41 23° 265° (W) 20:29:00 437.445
COMPASS 1 18 Jan 20:24:51 20:27:57 20° 266° (W) 20:31:06 437.405
AIST 2 18 Jan 20:24:54 20:28:52 46° 306° (NW) 20:32:55 435.215
GONETS M04 18 Jan 20:28:03 20:36:42 72° 279° (W) 20:45:29
PRISM 18 Jan 20:30:17 20:33:09 18° 94° (E) 20:35:57 437.425
DELFI C3 18 Jan 20:35:37 20:39:28 48° 74° (ENE) 20:43:21 145.870
AAUSAT CUBESAT 2 18 Jan 20:38:18 20:41:14 19° 267° (W) 20:44:12 437.432
Cosmos 2499 18 Jan 20:38:33 20:46:42 48° 283° (WNW) 20:54:20 435.465 / 435.565
FUNcube-1 18 Jan 20:55:25 20:58:58 28° 264° (W) 21:02:34 145.935
UWE-3 18 Jan 20:55:39 20:58:12 16° 267° (W) 21:00:46 435.000/436.395/437.385
ZACube-1 18 Jan 21:18:52 21:21:12 15° 268° (W) 21:23:33 437.345
CUBEBUG 1 18 Jan 21:43:19 21:45:07 12° 63° (ENE) 21:46:55 437.445
HUMSAT D 18 Jan 21:44:00 21:47:56 47° 261° (W) 21:51:56 437.325/437.525
UNISAT 6 18 Jan 21:54:26 21:58:46 51° 100° (E) 22:03:10 437.425
AISAT 18 Jan 21:55:28 21:56:44 11° 62° (ENE) 21:58:01 437.250
ISS 18 Jan 21:57:27 22:00:14 26° 134° (SE) 22:03:01 145.825
PRISM 18 Jan 22:04:47 22:08:30 33° 289° (WNW) 22:12:11 437.425
ESTCUBE 1 18 Jan 22:06:33 22:10:43 37° 71° (ENE) 22:14:54 437.505/2401.250
TIGRISAT 18 Jan 22:08:19 22:12:43 69° 102° (ESE) 22:17:12 435.000
BY70-1 18 Jan 22:08:29 22:11:23 81° 76° (ENE) 22:14:34 436.1900
DELFI C3 18 Jan 22:12:57 22:14:32 12° 269° (W) 22:16:07 145.870
JAS-2 18 Jan 22:18:26 22:25:03 38° 97° (E) 22:32:07 435.910
RS-15 18 Jan 22:20:59 22:30:47 32° 103° (ESE) 22:40:53 29.354- 29.394
ANTELSAT 18 Jan 22:23:05 22:27:31 77° 283° (WNW) 22:32:01 437.575/2403.000
VELOX 1 18 Jan 22:26:28 22:29:56 23° 67° (ENE) 22:33:24 145.980
AO-85 18 Jan 22:27:40 22:31:11 30° 51° (NE) 22:34:39 145.980
GONETS M04 18 Jan 22:31:22 22:35:17 13° 301° (WNW) 22:39:14
POPSAT HIP 1 18 Jan 22:37:10 22:39:01 13° 91° (E) 22:40:53 437.405
DUCHIFAT 1 18 Jan 22:49:42 22:52:11 15° 93° (E) 22:54:40 145.980
NANOSAT C BR1 18 Jan 22:53:51 22:56:51 19° 94° (E) 22:59:51 145.865
DX 1 18 Jan 23:04:12 23:07:54 27° 69° (ENE) 23:11:37 434.975-435.025
UKube-1 18 Jan 23:07:19 23:10:38 22° 67° (ENE) 23:13:56 .
SPROUT 18 Jan 23:07:48 23:11:50 43° 72° (ENE) 23:15:53 437.525
CUBEBUG 1 18 Jan 23:16:27 23:20:50 63° 259° (W) 23:25:14 437.445
50 SAT 18 Jan 23:18:26 23:21:57 60° 75° (ENE) 23:25:29 437.505
AISAT 18 Jan 23:28:08 23:32:35 73° 258° (WSW) 23:37:01 437.250
BUGSAT 1 18 Jan 23:31:33 23:33:56 15° 93° (E) 23:36:20 437.445
UNISAT 6 18 Jan 23:32:33 23:35:04 15° 295° (WNW) 23:37:35 437.425
ISS 18 Jan 23:33:39 23:36:38 33° 330° (NNW) 23:39:38 145.825
QB50P1 18 Jan 23:44:06 23:48:20 80° 104° (ESE) 23:52:33 145.935-145.965
ESTCUBE 1 18 Jan 23:44:18 23:47:36 20° 266° (W) 23:50:56 437.505/2401.250
TIGRISAT 18 Jan 23:47:21 23:48:51 12° 297° (WNW) 23:50:21 435.000
POLYITAN 1 18 Jan 23:47:41 23:51:56 88° 103° (ESE) 23:56:10 437.675
PCSat 18 Jan 23:48:32 23:52:26 21° 106° (ESE) 23:56:22 145.827
QB50P2 18 Jan 23:48:52 23:53:07 83° 285° (WNW) 23:57:21 145.880/145.840
YUBILEINY 18 Jan 23:57:07 00:03:44 23° 66° (ENE) 00:10:16 435.215
VELOX 1 19 Jan 00:02:12 00:06:11 32° 263° (W) 00:10:12 145.980
JAS-2 19 Jan 00:03:23 00:10:01 44° 291° (WNW) 00:17:11 435.910
AO-85 19 Jan 00:08:27 00:11:21 20° 248° (WSW) 00:14:16 145.980
POPSAT HIP 1 19 Jan 00:10:58 00:15:04 50° 287° (WNW) 00:19:09 437.405
Cosmos 2504 19 Jan 00:23:10 00:26:30 13° 61° (ENE) 00:29:47 435.465 / 435.565
DUCHIFAT 1 19 Jan 00:24:05 00:28:02 41° 288° (WNW) 00:31:59 145.980
AIST 1 19 Jan 00:26:35 00:30:10 26° 75° (ENE) 00:33:44
NANOSAT C BR1 19 Jan 00:28:51 00:32:38 33° 289° (WNW) 00:36:26 145.865
RS-15 19 Jan 00:30:18 00:42:10 73° 305° (NW) 00:54:35 29.354- 29.394
BEESAT 19 Jan 00:35:18 00:37:34 13° 62° (ENE) 00:39:50 436.000
SWISSCUBE 19 Jan 00:36:12 00:38:57 15° 63° (ENE) 00:41:42 437.505
Oscar 19 19 Jan 00:37:28 00:41:36 24° 94° (E) 00:45:41 437.125/150
Gurwin Techsat 1B 19 Jan 00:39:26 00:41:45 13° 90° (E) 00:44:03 435.225
DX 1 19 Jan 00:40:24 00:44:01 25° 264° (W) 00:47:40 434.975-435.025
TISAT 1 19 Jan 00:41:40 00:45:49 72° 75° (ENE) 00:49:59 437.305
UKube-1 19 Jan 00:42:35 00:46:27 32° 263° (W) 00:50:21 .
BEESAT 3 19 Jan 00:44:19 00:47:45 27° 50° (NE) 00:51:10 437.485
SPROUT 19 Jan 00:45:30 00:47:57 15° 268° (W) 00:50:24 437.525
Cosmos 2491 19 Jan 00:45:42 00:51:56 23° 80° (E) 00:58:11 435.465 / 435.565
BUGSAT 1 19 Jan 01:05:42 01:09:27 38° 288° (WNW) 01:13:12 437.445
ISS 19 Jan 01:12:37 01:13:54 12° 350° (N) 01:15:10 145.825
BEESAT 2 19 Jan 01:25:16 01:28:54 31° 51° (NE) 01:32:31 435.950
PCSat 19 Jan 01:30:08 01:35:24 52° 303° (WNW) 01:40:43 145.827
ITUPSAT 1 19 Jan 01:34:24 01:39:00 51° 72° (ENE) 01:43:37 437.325
YUBILEINY 19 Jan 01:52:37 02:01:27 76° 266° (W) 02:10:10 435.215
AO-7 19 Jan 02:04:12 02:08:52 16° 90° (E) 02:13:29 29.400- 29.500
AIST 1 19 Jan 02:04:16 02:07:38 23° 271° (W) 02:10:58
AUBIESAT-1 19 Jan 02:04:42 02:07:29 17° 62° (ENE) 02:10:10 437.475
BEESAT 19 Jan 02:10:02 02:14:45 67° 258° (WSW) 02:19:31 436.000
SWISSCUBE 19 Jan 02:11:34 02:16:14 57° 259° (W) 02:20:56 437.505
CUSAT 1 19 Jan 02:13:25 02:17:01 20° 81° (E) 02:21:15 437.405
Cosmos 2504 19 Jan 02:13:45 02:21:13 83° 83° (E) 02:28:22 435.465 / 435.565
Oscar 19 19 Jan 02:16:13 02:21:01 39° 290° (WNW) 02:25:46 437.125/150
Gurwin Techsat 1B 19 Jan 02:16:54 02:22:13 74° 286° (WNW) 02:27:31 435.225
MOZHAYETS 4 19 Jan 02:20:11 02:24:28 43° 72° (ENE) 02:28:50
BEESAT 3 19 Jan 02:21:56 02:25:17 26° 247° (WSW) 02:28:39 437.485
Cosmos 2491 19 Jan 02:39:09 02:47:50 72° 279° (W) 02:56:34 435.465 / 435.565
PHONESAT 2.4 19 Jan 02:43:48 02:46:01 42° 161° (SSE) 02:48:13 2401.200-2431.200
RS-15 19 Jan 02:47:24 02:57:20 28° 333° (NNW) 03:07:31 29.354- 29.394
ISS 19 Jan 02:50:18 02:51:32 12° 10° (N) 02:52:47 145.825
ITAMSAT 1 19 Jan 02:55:13 03:00:18 51° 100° (E) 03:05:21 435.822/435.867
M-CUBED/EXP-1 PRIME 19 Jan 02:59:02 03:03:30 86° 72° (ENE) 03:07:42 437.505
CUBESAT XI-V 19 Jan 03:02:45 03:06:04 20° 66° (ENE) 03:09:25 437.345
BEESAT 2 19 Jan 03:03:20 03:06:31 23° 248° (WSW) 03:09:42 435.950
AIST 2 19 Jan 03:10:19 03:11:46 11° 40° (NE) 03:13:14 435.215
KKS-1 19 Jan 03:11:24 03:15:42 50° 73° (ENE) 03:20:00 437.445
ITUPSAT 1 19 Jan 03:14:13 03:17:06 16° 268° (W) 03:20:00 437.325
AUBIESAT-1 19 Jan 03:37:27 03:41:37 43° 256° (WSW) 03:45:32 437.475
YUBILEINY 19 Jan 03:53:01 03:56:37 13° 285° (WNW) 04:00:12 435.215
CUSAT 1 19 Jan 03:53:26 03:58:09 48° 287° (WNW) 04:04:19 437.405
AO-7 19 Jan 03:54:16 04:02:41 85° 107° (ESE) 04:11:02 29.400- 29.500
MOZHAYETS 4 19 Jan 03:58:50 04:01:50 17° 268° (W) 04:04:52
STARS 19 Jan 04:08:49 04:13:13 84° 258° (WSW) 04:17:37 437.465
Cosmos 2504 19 Jan 04:09:38 04:13:25 15° 282° (WNW) 04:17:09 435.465 / 435.565
PHONESAT 2.4 19 Jan 04:17:48 04:20:05 68° 357° (N) 04:22:23 2401.200-2431.200
ISS 19 Jan 04:25:49 04:28:48 32° 30° (NNE) 04:31:46 145.825
DANDE 19 Jan 04:29:26 04:33:00 72° 281° (W) 04:37:50 436.750
BRITE-PL 19 Jan 04:31:29 04:36:04 38° 96° (E) 04:40:18 437.365/2234.400
ITAMSAT 1 19 Jan 04:35:39 04:39:22 20° 296° (WNW) 04:43:04 435.822/435.867
CUBESAT XI-V 19 Jan 04:38:40 04:43:06 43° 261° (W) 04:47:36 437.345
Cosmos 2491 19 Jan 04:42:25 04:46:23 14° 301° (WNW) 04:50:23 435.465 / 435.565
GOMX 1 19 Jan 04:44:06 04:47:07 18° 92° (E) 04:50:01 467.674
AIST 2 19 Jan 04:46:39 04:50:55 85° 62° (ENE) 04:55:08 435.215
KKS-1 19 Jan 04:50:09 04:52:31 14° 268° (W) 04:54:54 437.445
NOAA 15 19 Jan 04:54:31 04:55:46 11° 89° (E) 04:57:00 137.62
RS-15 19 Jan 05:07:05 05:15:51 21° 9° (N) 05:24:34 29.354- 29.394
DOVE 4 19 Jan 05:30:24 05:33:34 21° 94° (E) 05:36:41 437.250
CUTE-I 19 Jan 05:34:29 05:39:00 27° 96° (E) 05:43:30 437.470
LilacSat-2 19 Jan 05:45:17 05:48:53 36° 98° (E) 05:52:28 437.200
STRAND 1 19 Jan 05:48:20 05:52:49 32° 68° (ENE) 05:57:20 437.568
AO-7 19 Jan 05:48:27 05:54:27 23° 307° (NW) 06:00:27 29.400- 29.500
HORYU 2 19 Jan 05:49:14 05:53:41 71° 285° (WNW) 05:58:07 437.375
PHONESAT 2.4 19 Jan 05:51:57 05:54:15 72° 193° (SSW) 05:56:32 2401.200-2431.200
ISS 19 Jan 06:02:23 06:05:12 27° 226° (SW) 06:08:01 145.825
NOAA 18 19 Jan 06:09:37 06:14:25 31° 97° (E) 06:19:11 137.9125
BRITE-PL 19 Jan 06:10:33 06:14:14 21° 295° (WNW) 06:17:44 437.365/2234.400
O/OREOS (USA 219) 19 Jan 06:11:08 06:15:30 53° 107° (ESE) 06:19:51 437.305
Cubesat XI-IV 19 Jan 06:16:38 06:21:57 68° 102° (ESE) 06:27:16 437.490
GOMX 1 19 Jan 06:21:18 06:25:24 36° 289° (WNW) 06:29:17 467.674
Cosmos 2499 19 Jan 06:30:44 06:37:46 56° 78° (ENE) 06:44:40 435.465 / 435.565
NOAA 15 19 Jan 06:30:50 06:36:10 85° 284° (WNW) 06:41:28 137.62
GONETS M04 19 Jan 06:39:17 06:47:58 57° 78° (ENE) 06:56:36
HO-68 19 Jan 06:57:33 07:03:56 33° 97° (E) 07:10:15 435.675
SO-50 19 Jan 06:58:35 07:01:52 19° 110° (ESE) 07:05:09 436.795
DOVE 4 19 Jan 07:07:41 07:11:19 29° 290° (WNW) 07:14:52 437.250
CINEMA 3 19 Jan 07:08:33 07:12:41 59° 101° (E) 07:16:55 145.822/145.860
CUTE-I 19 Jan 07:14:13 07:19:03 36° 292° (WNW) 07:23:54 437.470
CUTE 1.7 + AOD 2 19 Jan 07:16:13 07:20:17 40° 98° (E) 07:24:18 437.475
PRISM 19 Jan 07:19:51 07:21:45 13° 64° (ENE) 07:23:38 437.425
LilacSat-2 19 Jan 07:20:33 07:22:51 15° 293° (WNW) 07:25:11 437.200
RS-15 19 Jan 07:21:25 07:33:02 43° 42° (NE) 07:44:16 29.354- 29.394
PHONESAT 2.4 19 Jan 07:26:42 07:28:05 14° 208° (SSW) 07:29:29 2401.200-2431.200
STRAND 1 19 Jan 07:27:37 07:31:58 28° 264° (W) 07:36:20 437.568
CANX-2 19 Jan 07:44:59 07:49:18 80° 284° (WNW) 07:53:35 2200.000
NOAA 18 19 Jan 07:50:11 07:55:02 34° 293° (WNW) 07:59:52 137.9125
O/OREOS (USA 219) 19 Jan 07:52:32 07:55:13 16° 305° (NW) 07:57:56 437.305
Cubesat XI-IV 19 Jan 07:58:17 08:01:26 16° 299° (WNW) 08:04:35 437.490
SEEDS 19 Jan 07:58:56 08:03:14 84° 104° (ESE) 08:07:28 437.485
COMPASS 1 19 Jan 08:06:59 08:11:12 67° 101° (E) 08:15:21 437.405
Oscar 11 19 Jan 08:09:04 08:12:17 20° 94° (E) 08:15:29 145.826/435.025
CUBEBUG 2 19 Jan 08:12:17 08:16:36 72° 101° (E) 08:21:03 437.445
NOAA 15 19 Jan 08:13:33 08:15:05 11° 302° (WNW) 08:16:38 137.62
AAUSAT CUBESAT 2 19 Jan 08:19:40 08:23:52 71° 101° (E) 08:28:01 437.432
Cosmos 2499 19 Jan 08:25:00 08:30:16 23° 277° (W) 08:35:30 435.465 / 435.565
JAS-2 19 Jan 08:35:01 08:36:28 11° 55° (NE) 08:37:54 435.910
PCSat 19 Jan 08:36:29 08:40:01 17° 44° (NE) 08:43:33 145.827
GONETS M04 19 Jan 08:36:55 08:44:14 31° 277° (W) 08:51:34
SO-50 19 Jan 08:37:25 08:41:59 49° 306° (NW) 08:46:32 436.795
FUNcube-1 19 Jan 08:42:59 08:47:17 53° 100° (E) 08:51:39 145.935
UWE-3 19 Jan 08:43:32 08:47:54 82° 283° (WNW) 08:52:21 435.000/436.395/437.385
HO-68 19 Jan 08:44:59 08:51:45 46° 294° (WNW) 08:58:28 435.675
CINEMA 3 19 Jan 08:47:56 08:49:21 11° 296° (WNW) 08:50:46 145.822/145.860
PRISM 19 Jan 08:52:28 08:56:33 54° 259° (W) 09:00:40 437.425
UNISAT 6 19 Jan 08:52:36 08:56:34 39° 72° (ENE) 09:00:31 437.425
CUTE 1.7 + AOD 2 19 Jan 08:52:56 08:55:47 17° 294° (WNW) 08:58:37 437.475
ZACube-1 19 Jan 09:05:16 09:09:39 79° 283° (WNW) 09:14:06 437.345
TIGRISAT 19 Jan 09:06:10 09:10:18 51° 73° (ENE) 09:14:25 435.000
ANTELSAT 19 Jan 09:20:55 09:25:11 83° 74° (ENE) 09:29:27 437.575/2403.000
HUMSAT D 19 Jan 09:28:04 09:31:45 27° 96° (E) 09:35:26 437.325/437.525
RS-15 19 Jan 09:34:10 09:46:16 66° 246° (WSW) 09:57:52 29.354- 29.394
DUCHIFAT 1 19 Jan 09:42:28 09:43:29 11° 63° (ENE) 09:44:29 145.980
Oscar 11 19 Jan 09:44:32 09:48:29 34° 289° (WNW) 09:52:25 145.826/435.025
COMPASS 1 19 Jan 09:45:11 09:46:09 11° 297° (WNW) 09:47:06 437.405
NANOSAT C BR1 19 Jan 09:46:14 09:48:16 13° 64° (ENE) 09:50:17 145.865
DELFI C3 19 Jan 09:48:06 09:52:08 89° 266° (W) 09:56:05 145.870
CUBEBUG 2 19 Jan 09:51:45 09:52:40 11° 297° (WNW) 09:53:35 437.445
JAS-2 19 Jan 10:15:10 10:20:26 84° 75° (ENE) 10:26:11 435.910
PCSat 19 Jan 10:18:37 10:24:04 80° 244° (WSW) 10:29:28 145.827
FUNcube-1 19 Jan 10:20:45 10:23:05 14° 295° (WNW) 10:25:27 145.935
BUGSAT 1 19 Jan 10:22:34 10:23:09 10° 63° (ENE) 10:23:44 437.445
UNISAT 6 19 Jan 10:30:43 10:33:25 16° 267° (W) 10:36:08 437.425
QB50P1 19 Jan 10:35:24 10:39:28 51° 74° (ENE) 10:43:32 145.935-145.965
POLYITAN 1 19 Jan 10:39:07 10:43:13 57° 74° (ENE) 10:47:20 437.675
QB50P2 19 Jan 10:40:16 10:44:25 64° 75° (ENE) 10:48:35 145.880/145.840
BY70-1 19 Jan 10:44:21 10:47:37 47° 99° (E) 10:50:40 436.1900
TIGRISAT 19 Jan 10:45:30 10:47:16 12° 269° (W) 10:49:03 435.000
POPSAT HIP 1 19 Jan 11:02:04 11:06:15 79° 258° (WSW) 11:10:28 437.405
HUMSAT D 19 Jan 11:03:45 11:07:14 24° 291° (WNW) 11:10:42 437.325/437.525
CUBEBUG 1 19 Jan 11:06:20 11:09:51 24° 95° (E) 11:13:21 437.445
DUCHIFAT 1 19 Jan 11:14:27 11:18:35 65° 259° (WSW) 11:22:45 145.980
NANOSAT C BR1 19 Jan 11:19:28 11:23:32 51° 260° (W) 11:27:37 145.865
AISAT 19 Jan 11:19:41 11:23:05 22° 95° (E) 11:26:27 437.250
ESTCUBE 1 19 Jan 11:35:58 11:40:32 89° 292° (WNW) 11:45:04 437.505/2401.250
RS-15 19 Jan 11:51:46 11:56:05 13° 267° (W) 12:00:21 29.354- 29.394
VELOX 1 19 Jan 11:52:29 11:56:45 47° 100° (E) 12:00:58 145.980
Oscar 19 19 Jan 11:53:17 11:57:52 33° 68° (ENE) 12:02:29 437.125/150
BUGSAT 1 19 Jan 11:53:55 11:57:59 64° 259° (W) 12:02:00 437.445
Gurwin Techsat 1B 19 Jan 11:59:06 12:02:56 21° 64° (ENE) 12:06:47 435.225
JAS-2 19 Jan 12:05:50 12:06:28 10° 274° (W) 12:07:07 435.910
QB50P1 19 Jan 12:13:45 12:15:30 12° 269° (W) 12:17:16 145.935-145.965
50 SAT 19 Jan 12:17:46 12:21:20 79° 103° (ESE) 12:24:52 437.505
POLYITAN 1 19 Jan 12:18:12 12:19:21 11° 269° (W) 12:20:29 437.675
DX 1 19 Jan 12:28:24 12:32:40 56° 101° (E) 12:36:54 434.975-435.025
TISAT 1 19 Jan 12:28:30 12:29:49 11° 91° (E) 12:31:08 437.305
SPROUT 19 Jan 12:29:46 12:34:02 84° 284° (WNW) 12:38:17 437.525
UKube-1 19 Jan 12:29:54 12:34:00 41° 99° (E) 12:38:04 .
CUBEBUG 1 19 Jan 12:42:24 12:46:05 28° 291° (WNW) 12:49:45 437.445
AO-85 19 Jan 12:42:35 12:45:05 14° 110° (ESE) 12:47:31 145.980
CUSAT 1 19 Jan 12:45:28 12:51:31 23° 65° (ENE) 12:57:20 437.405
Cosmos 2491 19 Jan 12:50:30 12:59:07 56° 78° (ENE) 13:07:42 435.465 / 435.565
AISAT 19 Jan 12:55:41 12:59:34 32° 290° (WNW) 13:03:25 437.250
AIST 1 19 Jan 12:55:49 12:58:36 17° 86° (E) 13:01:21
YUBILEINY 19 Jan 12:57:45 13:04:36 26° 82° (E) 13:11:27 435.215
AO-7 19 Jan 13:02:08 13:08:25 24° 54° (NE) 13:14:42 29.400- 29.500
Cosmos 2504 19 Jan 13:02:31 13:05:48 13° 77° (ENE) 13:09:01 435.465 / 435.565
DANDE 19 Jan 13:24:16 13:29:10 18° 64° (ENE) 13:34:18 436.750
VELOX 1 19 Jan 13:30:11 13:32:48 16° 296° (WNW) 13:35:23 145.980
